owner,sensor,date,latitude,longitude,vertical_datum,wind_speed,wind_to_direction,wind_speed_of_gust,qcFlag 
NOS,ioos:station:wmo:fpst2:1,2019-03-01T00:00:00Z,28.9360,-95.2940,15.0,2.7,8.0,3.1,'11111222,11111222,11111222' 
NOS,ioos:station:wmo:fpst2:1,2019-03-01T00:06:00Z,28.9360,-95.2940,15.0,3.1,341.0,3.9,'11111222,11111222,11111222' 
NOS,ioos:station:wmo:fpst2:1,2019-03-01T00:12:00Z,28.9360,-95.2940,15.0,3.8,322.0,5.2,'11111222,11111222,11111222' 
NOS,ioos:station:wmo:fpst2:1,2019-03-01T00:18:00Z,28.9360,-95.2940,15.0,5.2,326.0,7.0,'11111222,11111222,11111222' 
NOS,ioos:station:wmo:fpst2:1,2019-03-01T00:24:00Z,28.9360,-95.2940,15.0,6.1,313.0,7.3,'11111222,11111222,11111222' 
NOS,ioos:station:wmo:fpst2:1,2019-03-01T00:30:00Z,28.9360,-95.2940,15.0,5.5,309.0,7.2,'11111222,11111222,11111222' 
NOS,ioos:station:wmo:fpst2:1,2019-03-01T00:36:00Z,28.9360,-95.2940,15.0,4.1,324.0,6.4,'11111222,11111222,11111222' 
NOS,ioos:station:wmo:fpst2:1,2019-03-01T00:42:00Z,28.9360,-95.2940,15.0,4.9,334.0,5.7,'11111222,11111222,11111222' 
NOS,ioos:station:wmo:fpst2:1,2019-03-01T00:48:00Z,28.9360,-95.2940,15.0,4.1,342.0,5.2,'11111222,11111222,11111222' 
NOS,ioos:station:wmo:fpst2:1,2019-03-01T00:54:00Z,28.9360,-95.2940,15.0,4.8,336.0,6.2,'11111222,11111222,11111222' 
NOS,ioos:station:wmo:fpst2:1,2019-03-01T01:00:00Z,28.9360,-95.2940,15.0,4.0,340.0,5.4,'11111222,11111222,11111222' 
NOS,ioos:station:wmo:fpst2:1,2019-03-01T01:06:00Z,28.9360,-95.2940,15.0,4.7,345.0,6.0,'11111222,11111222,11111222' 
NOS,ioos:station:wmo:fpst2:1,2019-03-01T01:12:00Z,28.9360,-95.2940,15.0,6.0,350.0,7.6,'11111222,11111222,11111222' 
NOS,ioos:station:wmo:fpst2:1,2019-03-01T01:18:00Z,28.9360,-95.2940,15.0,5.6,358.0,7.7,'11111222,11111222,11111222' 
NOS,ioos:station:wmo:fpst2:1,2019-03-01T01:24:00Z,28.9360,-95.2940,15.0,5.8,346.0,7.8,'11111222,11111222,11111222' 
NOS,ioos:station:wmo:fpst2:1,2019-03-01T01:30:00Z,28.9360,-95.2940,15.0,6.0,347.0,7.4,'11111222,11111222,11111222' 
NOS,ioos:station:wmo:fpst2:1,2019-03-01T01:36:00Z,28.9360,-95.2940,15.0,5.3,359.0,7.2,'11111222,11111222,11111222' 
NOS,ioos:station:wmo:fpst2:1,2019-03-01T01:42:00Z,28.9360,-95.2940,15.0,5.4,351.0,7.3,'11111222,11111222,11111222' 
NOS,ioos:station:wmo:fpst2:1,2019-03-01T01:48:00Z,28.9360,-95.2940,15.0,5.4,352.0,7.3,'11111222,11111222,11111222' 
NOS,ioos:station:wmo:fpst2:1,2019-03-01T01:54:00Z,28.9360,-95.2940,15.0,5.4,7.0,8.3,'11111222,11111222,11111222' 
NOS,ioos:station:wmo:fpst2:1,2019-03-01T02:00:00Z,28.9360,-95.2940,15.0,6.2,4.0,8.3,'11111222,11111222,11111222' 
NOS,ioos:station:wmo:fpst2:1,2019-03-01T02:06:00Z,28.9360,-95.2940,15.0,6.7,347.0,8.5,'11111222,11111222,11111222' 
NOS,ioos:station:wmo:fpst2:1,2019-03-01T02:12:00Z,28.9360,-95.2940,15.0,5.4,357.0,6.7,'11111222,11111222,11111222' 
NOS,ioos:station:wmo:fpst2:1,2019-03-01T02:18:00Z,28.9360,-95.2940,15.0,4.9,359.0,6.3,'11111222,11111222,11111222' 
NOS,ioos:station:wmo:fpst2:1,2019-03-01T02:24:00Z,28.9360,-95.2940,15.0,4.2,3.0,6.6,'11111222,11111222,11111222' 
NOS,ioos:station:wmo:fpst2:1,2019-03-01T02:30:00Z,28.9360,-95.2940,15.0,5.6,359.0,7.2,'11111222,11111222,11111222' 
NOS,ioos:station:wmo:fpst2:1,2019-03-01T02:36:00Z,28.9360,-95.2940,15.0,5.6,345.0,7.3,'11111222,11111222,11111222' 
NOS,ioos:station:wmo:fpst2:1,2019-03-01T02:42:00Z,28.9360,-95.2940,15.0,5.3,354.0,7.2,'11111222,11111222,11111222' 
NOS,ioos:station:wmo:fpst2:1,2019-03-01T02:48:00Z,28.9360,-95.2940,15.0,6.2,350.0,7.4,'11111222,11111222,11111222' 
NOS,ioos:station:wmo:fpst2:1,2019-03-01T02:54:00Z,28.9360,-95.2940,15.0,5.9,349.0,8.5,'11111222,11111222,11111222' 
NOS,ioos:station:wmo:fpst2:1,2019-03-01T03:12:00Z,28.9360,-95.2940,15.0,5.6,346.0,7.6,'11111222,11111222,11111222' 
NOS,ioos:station:wmo:fpst2:1,2019-03-01T03:18:00Z,28.9360,-95.2940,15.0,4.9,349.0,7.6,'11111222,11111222,11111222' 
NOS,ioos:station:wmo:fpst2:1,2019-03-01T03:24:00Z,28.9360,-95.2940,15.0,5.1,358.0,7.1,'11111222,11111222,11111222' 
NOS,ioos:station:wmo:fpst2:1,2019-03-01T03:30:00Z,28.9360,-95.2940,15.0,4.6,3.0,6.9,'11111222,11111222,11111222' 
NOS,ioos:station:wmo:fpst2:1,2019-03-01T03:36:00Z,28.9360,-95.2940,15.0,3.2,353.0,4.7,'11111222,11111222,11111222' 
NOS,ioos:station:wmo:fpst2:1,2019-03-01T03:42:00Z,28.9360,-95.2940,15.0,4.1,339.0,5.2,'11111222,11111222,11111222' 
NOS,ioos:station:wmo:fpst2:1,2019-03-01T03:48:00Z,28.9360,-95.2940,15.0,5.9,341.0,6.7,'11111222,11111222,11111222' 
NOS,ioos:station:wmo:fpst2:1,2019-03-01T03:54:00Z,28.9360,-95.2940,15.0,6.1,345.0,7.0,'11111222,11111222,11111222' 
NOS,ioos:station:wmo:fpst2:1,2019-03-01T04:00:00Z,28.9360,-95.2940,15.0,6.3,342.0,7.3,'11111222,11111222,11111222' 
NOS,ioos:station:wmo:fpst2:1,2019-03-01T04:06:00Z,28.9360,-95.2940,15.0,5.1,336.0,6.5,'11111222,11111222,11111222' 
NOS,ioos:station:wmo:fpst2:1,2019-03-01T04:12:00Z,28.9360,-95.2940,15.0,6.4,341.0,8.3,'11111222,11111222,11111222' 
NOS,ioos:station:wmo:fpst2:1,2019-03-01T04:18:00Z,28.9360,-95.2940,15.0,5.3,342.0,7.2,'11111222,11111222,11111222' 
NOS,ioos:station:wmo:fpst2:1,2019-03-01T04:24:00Z,28.9360,-95.2940,15.0,5.6,338.0,7.4,'11111222,11111222,11111222' 
NOS,ioos:station:wmo:fpst2:1,2019-03-01T04:30:00Z,28.9360,-95.2940,15.0,6.2,338.0,7.5,'11111222,11111222,11111222' 
NOS,ioos:station:wmo:fpst2:1,2019-03-01T04:36:00Z,28.9360,-95.2940,15.0,6.3,341.0,7.9,'11111222,11111222,11111222' 
NOS,ioos:station:wmo:fpst2:1,2019-03-01T04:42:00Z,28.9360,-95.2940,15.0,6.3,338.0,7.8,'11111222,11111222,11111222' 
NOS,ioos:station:wmo:fpst2:1,2019-03-01T04:48:00Z,28.9360,-95.2940,15.0,7.3,341.0,8.8,'11111222,11111222,11111222' 
NOS,ioos:station:wmo:fpst2:1,2019-03-01T04:54:00Z,28.9360,-95.2940,15.0,8.1,346.0,9.9,'11111222,11111222,11111222' 
NOS,ioos:station:wmo:fpst2:1,2019-03-01T05:00:00Z,28.9360,-95.2940,15.0,7.0,339.0,9.2,'11111222,11111222,11111222' 
NOS,ioos:station:wmo:fpst2:1,2019-03-01T05:06:00Z,28.9360,-95.2940,15.0,6.8,341.0,9.2,'11111222,11111222,11111222' 
NOS,ioos:station:wmo:fpst2:1,2019-03-01T05:12:00Z,28.9360,-95.2940,15.0,7.4,334.0,10.1,'11111222,11111222,11111222' 
NOS,ioos:station:wmo:fpst2:1,2019-03-01T05:18:00Z,28.9360,-95.2940,15.0,9.2,335.0,10.9,'11111222,11111222,11111222' 
NOS,ioos:station:wmo:fpst2:1,2019-03-01T05:24:00Z,28.9360,-95.2940,15.0,7.5,327.0,10.6,'11111222,11111222,11111222' 
NOS,ioos:station:wmo:fpst2:1,2019-03-01T05:30:00Z,28.9360,-95.2940,15.0,6.9,334.0,9.4,'11111222,11111222,11111222' 
NOS,ioos:station:wmo:fpst2:1,2019-03-01T05:36:00Z,28.9360,-95.2940,15.0,9.3,339.0,10.9,'11111222,11111222,11111222' 
NOS,ioos:station:wmo:fpst2:1,2019-03-01T05:42:00Z,28.9360,-95.2940,15.0,8.1,341.0,10.1,'11111222,11111222,11111222' 
NOS,ioos:station:wmo:fpst2:1,2019-03-01T05:48:00Z,28.9360,-95.2940,15.0,7.6,340.0,9.3,'11111222,11111222,11111222' 
NOS,ioos:station:wmo:fpst2:1,2019-03-01T05:54:00Z,28.9360,-95.2940,15.0,5.7,342.0,9.2,'11111222,11111222,11111222' 
NOS,ioos:station:wmo:fpst2:1,2019-03-01T06:00:00Z,28.9360,-95.2940,15.0,5.9,341.0,6.8,'11111222,11111222,11111222' 
NOS,ioos:station:wmo:fpst2:1,2019-03-01T06:06:00Z,28.9360,-95.2940,15.0,4.7,354.0,6.2,'11111222,11111222,11111222' 
NOS,ioos:station:wmo:fpst2:1,2019-03-01T06:12:00Z,28.9360,-95.2940,15.0,4.0,348.0,5.8,'11111222,11111222,11111222' 
NOS,ioos:station:wmo:fpst2:1,2019-03-01T06:18:00Z,28.9360,-95.2940,15.0,5.4,344.0,6.7,'11111222,11111222,11111222' 
NOS,ioos:station:wmo:fpst2:1,2019-03-01T06:24:00Z,28.9360,-95.2940,15.0,5.4,348.0,6.7,'11111222,11111222,11111222' 
NOS,ioos:station:wmo:fpst2:1,2019-03-01T06:30:00Z,28.9360,-95.2940,15.0,4.6,341.0,5.7,'11111222,11111222,11111222' 
NOS,ioos:station:wmo:fpst2:1,2019-03-01T06:36:00Z,28.9360,-95.2940,15.0,4.9,338.0,5.7,'11111222,11111222,11111222' 
NOS,ioos:station:wmo:fpst2:1,2019-03-01T06:42:00Z,28.9360,-95.2940,15.0,4.4,329.0,6.0,'11111222,11111222,11111222' 
NOS,ioos:station:wmo:fpst2:1,2019-03-01T06:48:00Z,28.9360,-95.2940,15.0,4.6,332.0,6.2,'11111222,11111222,11111222' 
NOS,ioos:station:wmo:fpst2:1,2019-03-01T06:54:00Z,28.9360,-95.2940,15.0,5.3,338.0,6.7,'11111222,11111222,11111222' 
NOS,ioos:station:wmo:fpst2:1,2019-03-01T07:00:00Z,28.9360,-95.2940,15.0,4.6,341.0,7.0,'11111222,11111222,11111222' 
NOS,ioos:station:wmo:fpst2:1,2019-03-01T07:06:00Z,28.9360,-95.2940,15.0,4.5,341.0,5.9,'11111222,11111222,11111222' 
NOS,ioos:station:wmo:fpst2:1,2019-03-01T07:12:00Z,28.9360,-95.2940,15.0,3.7,342.0,5.2,'11111222,11111222,11111222' 
NOS,ioos:station:wmo:fpst2:1,2019-03-01T07:18:00Z,28.9360,-95.2940,15.0,3.5,334.0,4.9,'11111222,11111222,11111222' 
NOS,ioos:station:wmo:fpst2:1,2019-03-01T07:24:00Z,28.9360,-95.2940,15.0,3.2,335.0,4.7,'11111222,11111222,11111222' 
NOS,ioos:station:wmo:fpst2:1,2019-03-01T07:30:00Z,28.9360,-95.2940,15.0,3.5,334.0,4.6,'11111222,11111222,11111222' 
NOS,ioos:station:wmo:fpst2:1,2019-03-01T07:36:00Z,28.9360,-95.2940,15.0,3.3,333.0,4.5,'11111222,11111222,11111222' 
NOS,ioos:station:wmo:fpst2:1,2019-03-01T07:42:00Z,28.9360,-95.2940,15.0,3.4,341.0,4.2,'11111222,11111222,11111222' 
NOS,ioos:station:wmo:fpst2:1,2019-03-01T07:48:00Z,28.9360,-95.2940,15.0,2.7,341.0,3.9,'11111222,11111222,11111222' 
NOS,ioos:station:wmo:fpst2:1,2019-03-01T07:54:00Z,28.9360,-95.2940,15.0,3.1,357.0,3.5,'11111222,11111222,11111222' 
NOS,ioos:station:wmo:fpst2:1,2019-03-01T08:00:00Z,28.9360,-95.2940,15.0,3.2,7.0,3.9,'11111222,11111222,11111222' 
NOS,ioos:station:wmo:fpst2:1,2019-03-01T08:06:00Z,28.9360,-95.2940,15.0,3.2,3.0,3.7,'11111222,11111222,11111222' 
NOS,ioos:station:wmo:fpst2:1,2019-03-01T08:12:00Z,28.9360,-95.2940,15.0,3.1,7.0,3.7,'11111222,11111222,11111222' 
NOS,ioos:station:wmo:fpst2:1,2019-03-01T08:18:00Z,28.9360,-95.2940,15.0,2.9,354.0,3.5,'11111222,11111222,11111222' 
NOS,ioos:station:wmo:fpst2:1,2019-03-01T08:24:00Z,28.9360,-95.2940,15.0,2.5,353.0,3.6,'11111222,11111222,11111222' 
NOS,ioos:station:wmo:fpst2:1,2019-03-01T08:30:00Z,28.9360,-95.2940,15.0,3.4,356.0,3.8,'11111222,11111222,11111222' 
NOS,ioos:station:wmo:fpst2:1,2019-03-01T08:36:00Z,28.9360,-95.2940,15.0,4.0,4.0,4.6,'11111222,11111222,11111222' 
NOS,ioos:station:wmo:fpst2:1,2019-03-01T08:42:00Z,28.9360,-95.2940,15.0,3.6,1.0,4.8,'11111222,11111222,11111222' 
NOS,ioos:station:wmo:fpst2:1,2019-03-01T08:48:00Z,28.9360,-95.2940,15.0,3.5,9.0,4.4,'11111222,11111222,11111222' 
NOS,ioos:station:wmo:fpst2:1,2019-03-01T08:54:00Z,28.9360,-95.2940,15.0,4.2,7.0,5.1,'11111222,11111222,11111222' 
NOS,ioos:station:wmo:fpst2:1,2019-03-01T09:00:00Z,28.9360,-95.2940,15.0,3.4,358.0,4.6,'11111222,11111222,11111222' 
NOS,ioos:station:wmo:fpst2:1,2019-03-01T09:06:00Z,28.9360,-95.2940,15.0,4.1,349.0,4.6,'11111222,11111222,11111222' 
NOS,ioos:station:wmo:fpst2:1,2019-03-01T09:12:00Z,28.9360,-95.2940,15.0,3.9,348.0,6.1,'11111222,11111222,11111222' 
NOS,ioos:station:wmo:fpst2:1,2019-03-01T09:18:00Z,28.9360,-95.2940,15.0,3.2,356.0,4.7,'11111222,11111222,11111222' 
NOS,ioos:station:wmo:fpst2:1,2019-03-01T09:24:00Z,28.9360,-95.2940,15.0,3.7,354.0,5.3,'11111222,11111222,11111222' 
NOS,ioos:station:wmo:fpst2:1,2019-03-01T09:30:00Z,28.9360,-95.2940,15.0,4.5,1.0,5.6,'11111222,11111222,11111222' 
NOS,ioos:station:wmo:fpst2:1,2019-03-01T09:36:00Z,28.9360,-95.2940,15.0,4.1,359.0,5.0,'11111222,11111222,11111222' 
NOS,ioos:station:wmo:fpst2:1,2019-03-01T09:42:00Z,28.9360,-95.2940,15.0,3.9,359.0,4.8,'11111222,11111222,11111222' 
NOS,ioos:station:wmo:fpst2:1,2019-03-01T09:48:00Z,28.9360,-95.2940,15.0,5.0,4.0,6.2,'11111222,11111222,11111222' 
NOS,ioos:station:wmo:fpst2:1,2019-03-01T09:54:00Z,28.9360,-95.2940,15.0,4.7,4.0,6.2,'11111222,11111222,11111222' 
NOS,ioos:station:wmo:fpst2:1,2019-03-01T10:00:00Z,28.9360,-95.2940,15.0,4.8,4.0,6.1,'11111222,11111222,11111222' 
NOS,ioos:station:wmo:fpst2:1,2019-03-01T10:06:00Z,28.9360,-95.2940,15.0,4.7,4.0,5.9,'11111222,11111222,11111222' 
NOS,ioos:station:wmo:fpst2:1,2019-03-01T10:12:00Z,28.9360,-95.2940,15.0,4.5,358.0,5.3,'11111222,11111222,11111222' 
NOS,ioos:station:wmo:fpst2:1,2019-03-01T10:18:00Z,28.9360,-95.2940,15.0,4.6,348.0,5.9,'11111222,11111222,11111222' 
NOS,ioos:station:wmo:fpst2:1,2019-03-01T10:24:00Z,28.9360,-95.2940,15.0,5.3,351.0,6.8,'11111222,11111222,11111222' 
NOS,ioos:station:wmo:fpst2:1,2019-03-01T10:30:00Z,28.9360,-95.2940,15.0,4.5,350.0,5.9,'11111222,11111222,11111222' 
NOS,ioos:station:wmo:fpst2:1,2019-03-01T10:36:00Z,28.9360,-95.2940,15.0,3.7,352.0,4.7,'11111222,11111222,11111222' 
NOS,ioos:station:wmo:fpst2:1,2019-03-01T10:42:00Z,28.9360,-95.2940,15.0,4.0,2.0,4.7,'11111222,11111222,11111222' 
NOS,ioos:station:wmo:fpst2:1,2019-03-01T10:48:00Z,28.9360,-95.2940,15.0,3.8,6.0,4.6,'11111222,11111222,11111222' 
NOS,ioos:station:wmo:fpst2:1,2019-03-01T10:54:00Z,28.9360,-95.2940,15.0,3.4,4.0,4.5,'11111222,11111222,11111222' 
NOS,ioos:station:wmo:fpst2:1,2019-03-01T11:00:00Z,28.9360,-95.2940,15.0,4.6,20.0,5.1,'11111222,11111222,11111222' 
NOS,ioos:station:wmo:fpst2:1,2019-03-01T11:06:00Z,28.9360,-95.2940,15.0,3.8,14.0,5.3,'11111222,11111222,11111222' 
NOS,ioos:station:wmo:fpst2:1,2019-03-01T11:12:00Z,28.9360,-95.2940,15.0,2.7,340.0,3.6,'11111222,11111222,11111222' 
NOS,ioos:station:wmo:fpst2:1,2019-03-01T11:18:00Z,28.9360,-95.2940,15.0,2.6,358.0,3.2,'11111222,11111222,11111222' 
NOS,ioos:station:wmo:fpst2:1,2019-03-01T11:24:00Z,28.9360,-95.2940,15.0,3.2,337.0,3.7,'11111222,11111222,11111222' 
NOS,ioos:station:wmo:fpst2:1,2019-03-01T11:30:00Z,28.9360,-95.2940,15.0,3.6,342.0,4.2,'11111222,11111222,11111222' 
NOS,ioos:station:wmo:fpst2:1,2019-03-01T11:36:00Z,28.9360,-95.2940,15.0,2.7,341.0,5.0,'11111222,11111222,11111222' 
NOS,ioos:station:wmo:fpst2:1,2019-03-01T11:42:00Z,28.9360,-95.2940,15.0,3.1,356.0,3.9,'11111222,11111222,11111222' 
NOS,ioos:station:wmo:fpst2:1,2019-03-01T11:48:00Z,28.9360,-95.2940,15.0,3.0,349.0,4.2,'11111222,11111222,11111222' 
NOS,ioos:station:wmo:fpst2:1,2019-03-01T11:54:00Z,28.9360,-95.2940,15.0,2.2,12.0,2.8,'11111222,11111222,11111222' 
NOS,ioos:station:wmo:fpst2:1,2019-03-01T12:00:00Z,28.9360,-95.2940,15.0,2.6,8.0,3.2,'11111222,11111222,11111222' 
NOS,ioos:station:wmo:fpst2:1,2019-03-01T12:06:00Z,28.9360,-95.2940,15.0,3.6,3.0,4.0,'11111222,11111222,11111222' 
NOS,ioos:station:wmo:fpst2:1,2019-03-01T12:12:00Z,28.9360,-95.2940,15.0,3.8,360.0,4.5,'11111222,11144222,11111222' 
NOS,ioos:station:wmo:fpst2:1,2019-03-01T12:18:00Z,28.9360,-95.2940,15.0,4.5,356.0,5.3,'11111222,11111222,11111222' 
NOS,ioos:station:wmo:fpst2:1,2019-03-01T12:24:00Z,28.9360,-95.2940,15.0,4.3,359.0,5.1,'11111222,11111222,11111222' 
NOS,ioos:station:wmo:fpst2:1,2019-03-01T12:30:00Z,28.9360,-95.2940,15.0,3.7,3.0,5.5,'11111222,11111222,11111222' 
NOS,ioos:station:wmo:fpst2:1,2019-03-01T12:36:00Z,28.9360,-95.2940,15.0,3.1,1.0,4.7,'11111222,11111222,11111222' 
NOS,ioos:station:wmo:fpst2:1,2019-03-01T12:42:00Z,28.9360,-95.2940,15.0,3.4,1.0,4.0,'11111222,11111222,11111222' 
NOS,ioos:station:wmo:fpst2:1,2019-03-01T12:48:00Z,28.9360,-95.2940,15.0,3.7,3.0,4.3,'11111222,11111222,11111222' 
NOS,ioos:station:wmo:fpst2:1,2019-03-01T12:54:00Z,28.9360,-95.2940,15.0,3.5,1.0,4.5,'11111222,11111222,11111222' 
NOS,ioos:station:wmo:fpst2:1,2019-03-01T13:00:00Z,28.9360,-95.2940,15.0,4.8,357.0,5.5,'11111222,11111222,11111222' 
NOS,ioos:station:wmo:fpst2:1,2019-03-01T13:06:00Z,28.9360,-95.2940,15.0,3.2,358.0,4.9,'11111222,11111222,11111222' 
NOS,ioos:station:wmo:fpst2:1,2019-03-01T13:12:00Z,28.9360,-95.2940,15.0,3.2,352.0,4.1,'11111222,11111222,11111222' 
NOS,ioos:station:wmo:fpst2:1,2019-03-01T13:18:00Z,28.9360,-95.2940,15.0,3.5,346.0,4.0,'11111222,11111222,11111222' 
NOS,ioos:station:wmo:fpst2:1,2019-03-01T13:24:00Z,28.9360,-95.2940,15.0,3.9,1.0,4.8,'11111222,11111222,11111222' 
NOS,ioos:station:wmo:fpst2:1,2019-03-01T13:30:00Z,28.9360,-95.2940,15.0,4.0,352.0,5.3,'11111222,11111222,11111222' 
NOS,ioos:station:wmo:fpst2:1,2019-03-01T13:36:00Z,28.9360,-95.2940,15.0,4.2,345.0,5.1,'11111222,11111222,11111222' 
NOS,ioos:station:wmo:fpst2:1,2019-03-01T13:42:00Z,28.9360,-95.2940,15.0,4.2,337.0,5.5,'11111222,11111222,11111222' 
NOS,ioos:station:wmo:fpst2:1,2019-03-01T13:48:00Z,28.9360,-95.2940,15.0,4.5,348.0,5.3,'11111222,11111222,11111222' 
NOS,ioos:station:wmo:fpst2:1,2019-03-01T13:54:00Z,28.9360,-95.2940,15.0,4.7,353.0,5.8,'11111222,11111222,11111222' 
NOS,ioos:station:wmo:fpst2:1,2019-03-01T14:00:00Z,28.9360,-95.2940,15.0,4.1,349.0,5.5,'11111222,11111222,11111222' 
NOS,ioos:station:wmo:fpst2:1,2019-03-01T14:06:00Z,28.9360,-95.2940,15.0,4.2,3.0,5.3,'11111222,11111222,11111222' 
NOS,ioos:station:wmo:fpst2:1,2019-03-01T14:12:00Z,28.9360,-95.2940,15.0,3.1,6.0,4.4,'11111222,11111222,11111222' 
NOS,ioos:station:wmo:fpst2:1,2019-03-01T14:18:00Z,28.9360,-95.2940,15.0,3.8,13.0,5.0,'11111222,11111222,11111222' 
NOS,ioos:station:wmo:fpst2:1,2019-03-01T14:24:00Z,28.9360,-95.2940,15.0,4.1,24.0,4.9,'11111222,11111222,11111222' 
NOS,ioos:station:wmo:fpst2:1,2019-03-01T14:30:00Z,28.9360,-95.2940,15.0,4.0,12.0,5.3,'11111222,11111222,11111222' 
NOS,ioos:station:wmo:fpst2:1,2019-03-01T14:36:00Z,28.9360,-95.2940,15.0,2.6,0.0,3.8,'11111222,11111222,11111222' 
NOS,ioos:station:wmo:fpst2:1,2019-03-01T14:42:00Z,28.9360,-95.2940,15.0,2.8,338.0,3.3,'11111222,11111222,11111222' 
NOS,ioos:station:wmo:fpst2:1,2019-03-01T14:48:00Z,28.9360,-95.2940,15.0,2.3,348.0,3.2,'11111222,11111222,11111222' 
NOS,ioos:station:wmo:fpst2:1,2019-03-01T14:54:00Z,28.9360,-95.2940,15.0,2.7,2.0,3.0,'11111222,11111222,11111222' 
NOS,ioos:station:wmo:fpst2:1,2019-03-01T15:00:00Z,28.9360,-95.2940,15.0,3.3,13.0,3.7,'11111222,11111222,11111222' 
NOS,ioos:station:wmo:fpst2:1,2019-03-01T15:06:00Z,28.9360,-95.2940,15.0,4.0,15.0,4.5,'11111222,11111222,11111222' 
NOS,ioos:station:wmo:fpst2:1,2019-03-01T15:12:00Z,28.9360,-95.2940,15.0,4.1,19.0,4.6,'11111222,11111222,11111222' 
NOS,ioos:station:wmo:fpst2:1,2019-03-01T15:18:00Z,28.9360,-95.2940,15.0,5.1,28.0,5.5,'11111222,11111222,11111222' 
NOS,ioos:station:wmo:fpst2:1,2019-03-01T15:24:00Z,28.9360,-95.2940,15.0,5.3,29.0,6.0,'11111222,11111222,11111222' 
NOS,ioos:station:wmo:fpst2:1,2019-03-01T15:30:00Z,28.9360,-95.2940,15.0,5.8,33.0,6.3,'11111222,11111222,11111222' 
NOS,ioos:station:wmo:fpst2:1,2019-03-01T15:36:00Z,28.9360,-95.2940,15.0,6.3,34.0,6.9,'11111222,11111222,11111222' 
NOS,ioos:station:wmo:fpst2:1,2019-03-01T15:42:00Z,28.9360,-95.2940,15.0,5.8,31.0,6.8,'11111222,11111222,11111222' 
NOS,ioos:station:wmo:fpst2:1,2019-03-01T15:48:00Z,28.9360,-95.2940,15.0,5.8,36.0,6.7,'11111222,11111222,11111222' 
NOS,ioos:station:wmo:fpst2:1,2019-03-01T15:54:00Z,28.9360,-95.2940,15.0,6.0,35.0,7.0,'11111222,11111222,11111222' 
NOS,ioos:station:wmo:fpst2:1,2019-03-01T16:00:00Z,28.9360,-95.2940,15.0,5.6,38.0,6.6,'11111222,11111222,11111222' 
NOS,ioos:station:wmo:fpst2:1,2019-03-01T16:06:00Z,28.9360,-95.2940,15.0,5.2,53.0,6.4,'11111222,11111222,11111222' 
NOS,ioos:station:wmo:fpst2:1,2019-03-01T16:12:00Z,28.9360,-95.2940,15.0,4.5,62.0,5.5,'11111222,11111222,11111222' 
NOS,ioos:station:wmo:fpst2:1,2019-03-01T16:18:00Z,28.9360,-95.2940,15.0,4.9,55.0,5.6,'11111222,11111222,11111222' 
NOS,ioos:station:wmo:fpst2:1,2019-03-01T16:24:00Z,28.9360,-95.2940,15.0,4.8,44.0,5.7,'11111222,11111222,11111222' 
NOS,ioos:station:wmo:fpst2:1,2019-03-01T16:30:00Z,28.9360,-95.2940,15.0,4.6,43.0,5.3,'11111222,11111222,11111222' 
NOS,ioos:station:wmo:fpst2:1,2019-03-01T16:36:00Z,28.9360,-95.2940,15.0,5.6,49.0,6.1,'11111222,11111222,11111222' 
NOS,ioos:station:wmo:fpst2:1,2019-03-01T16:42:00Z,28.9360,-95.2940,15.0,6.0,52.0,6.4,'11111222,11111222,11111222' 
NOS,ioos:station:wmo:fpst2:1,2019-03-01T16:48:00Z,28.9360,-95.2940,15.0,5.5,54.0,6.7,'11111222,11111222,11111222' 
NOS,ioos:station:wmo:fpst2:1,2019-03-01T16:54:00Z,28.9360,-95.2940,15.0,5.2,39.0,5.9,'11111222,11111222,11111222' 
NOS,ioos:station:wmo:fpst2:1,2019-03-01T17:00:00Z,28.9360,-95.2940,15.0,5.0,37.0,5.8,'11111222,11111222,11111222' 
NOS,ioos:station:wmo:fpst2:1,2019-03-01T17:06:00Z,28.9360,-95.2940,15.0,5.3,43.0,5.8,'11111222,11111222,11111222' 
NOS,ioos:station:wmo:fpst2:1,2019-03-01T17:12:00Z,28.9360,-95.2940,15.0,5.7,39.0,6.0,'11111222,11111222,11111222' 
NOS,ioos:station:wmo:fpst2:1,2019-03-01T17:18:00Z,28.9360,-95.2940,15.0,5.3,38.0,6.3,'11111222,11111222,11111222' 
NOS,ioos:station:wmo:fpst2:1,2019-03-01T17:24:00Z,28.9360,-95.2940,15.0,4.8,30.0,5.6,'11111222,11111222,11111222' 
NOS,ioos:station:wmo:fpst2:1,2019-03-01T17:30:00Z,28.9360,-95.2940,15.0,5.2,33.0,5.8,'11111222,11111222,11111222' 
NOS,ioos:station:wmo:fpst2:1,2019-03-01T17:36:00Z,28.9360,-95.2940,15.0,4.9,44.0,5.3,'11111222,11111222,11111222' 
NOS,ioos:station:wmo:fpst2:1,2019-03-01T17:42:00Z,28.9360,-95.2940,15.0,4.6,40.0,5.4,'11111222,11111222,11111222' 
NOS,ioos:station:wmo:fpst2:1,2019-03-01T17:48:00Z,28.9360,-95.2940,15.0,4.6,40.0,5.6,'11111222,11111222,11111222' 
NOS,ioos:station:wmo:fpst2:1,2019-03-01T17:54:00Z,28.9360,-95.2940,15.0,5.1,44.0,5.7,'11111222,11111222,11111222' 
NOS,ioos:station:wmo:fpst2:1,2019-03-01T18:00:00Z,28.9360,-95.2940,15.0,4.7,38.0,5.6,'11111222,11111222,11111222' 
NOS,ioos:station:wmo:fpst2:1,2019-03-01T18:06:00Z,28.9360,-95.2940,15.0,5.1,44.0,5.7,'11111222,11111222,11111222' 
NOS,ioos:station:wmo:fpst2:1,2019-03-01T18:12:00Z,28.9360,-95.2940,15.0,4.8,46.0,5.7,'11111222,11111222,11111222' 
NOS,ioos:station:wmo:fpst2:1,2019-03-01T18:18:00Z,28.9360,-95.2940,15.0,5.7,41.0,6.3,'11111222,11111222,11111222' 
NOS,ioos:station:wmo:fpst2:1,2019-03-01T18:24:00Z,28.9360,-95.2940,15.0,5.2,31.0,6.1,'11111222,11111222,11111222' 
NOS,ioos:station:wmo:fpst2:1,2019-03-01T18:30:00Z,28.9360,-95.2940,15.0,5.4,34.0,5.9,'11111222,11111222,11111222' 
NOS,ioos:station:wmo:fpst2:1,2019-03-01T18:36:00Z,28.9360,-95.2940,15.0,5.1,29.0,6.0,'11111222,11111222,11111222' 
NOS,ioos:station:wmo:fpst2:1,2019-03-01T18:42:00Z,28.9360,-95.2940,15.0,5.3,27.0,6.0,'11111222,11111222,11111222' 
NOS,ioos:station:wmo:fpst2:1,2019-03-01T18:48:00Z,28.9360,-95.2940,15.0,5.0,32.0,5.6,'11111222,11111222,11111222' 
NOS,ioos:station:wmo:fpst2:1,2019-03-01T18:54:00Z,28.9360,-95.2940,15.0,4.9,38.0,5.5,'11111222,11111222,11111222' 
NOS,ioos:station:wmo:fpst2:1,2019-03-01T19:00:00Z,28.9360,-95.2940,15.0,5.2,41.0,5.6,'11111222,11111222,11111222' 
NOS,ioos:station:wmo:fpst2:1,2019-03-01T19:06:00Z,28.9360,-95.2940,15.0,4.6,36.0,5.4,'11111222,11111222,11111222' 
NOS,ioos:station:wmo:fpst2:1,2019-03-01T19:12:00Z,28.9360,-95.2940,15.0,4.1,27.0,5.3,'11111222,11111222,11111222' 
NOS,ioos:station:wmo:fpst2:1,2019-03-01T19:18:00Z,28.9360,-95.2940,15.0,4.2,31.0,4.9,'11111222,11111222,11111222' 
NOS,ioos:station:wmo:fpst2:1,2019-03-01T19:24:00Z,28.9360,-95.2940,15.0,4.5,36.0,5.1,'11111222,11111222,11111222' 
NOS,ioos:station:wmo:fpst2:1,2019-03-01T19:30:00Z,28.9360,-95.2940,15.0,4.8,37.0,5.1,'11111222,11111222,11111222' 
NOS,ioos:station:wmo:fpst2:1,2019-03-01T19:36:00Z,28.9360,-95.2940,15.0,4.5,29.0,5.1,'11111222,11111222,11111222' 
NOS,ioos:station:wmo:fpst2:1,2019-03-01T19:42:00Z,28.9360,-95.2940,15.0,4.5,29.0,5.3,'11111222,11111222,11111222' 
NOS,ioos:station:wmo:fpst2:1,2019-03-01T19:48:00Z,28.9360,-95.2940,15.0,4.6,37.0,5.0,'11111222,11111222,11111222' 
NOS,ioos:station:wmo:fpst2:1,2019-03-01T19:54:00Z,28.9360,-95.2940,15.0,4.6,39.0,5.0,'11111222,11111222,11111222' 
NOS,ioos:station:wmo:fpst2:1,2019-03-01T20:00:00Z,28.9360,-95.2940,15.0,4.5,40.0,5.0,'11111222,11111222,11111222' 
NOS,ioos:station:wmo:fpst2:1,2019-03-01T20:06:00Z,28.9360,-95.2940,15.0,4.4,41.0,4.8,'11111222,11111222,11111222' 
NOS,ioos:station:wmo:fpst2:1,2019-03-01T20:12:00Z,28.9360,-95.2940,15.0,4.4,41.0,4.9,'11111222,11111222,11111222' 
NOS,ioos:station:wmo:fpst2:1,2019-03-01T20:18:00Z,28.9360,-95.2940,15.0,4.6,45.0,4.9,'11111222,11111222,11111222' 
NOS,ioos:station:wmo:fpst2:1,2019-03-01T20:24:00Z,28.9360,-95.2940,15.0,4.6,48.0,5.0,'11111222,11111222,11111222' 
NOS,ioos:station:wmo:fpst2:1,2019-03-01T20:30:00Z,28.9360,-95.2940,15.0,4.2,44.0,4.8,'11111222,11111222,11111222' 
NOS,ioos:station:wmo:fpst2:1,2019-03-01T20:36:00Z,28.9360,-95.2940,15.0,4.4,54.0,4.7,'11111222,11111222,11111222' 
NOS,ioos:station:wmo:fpst2:1,2019-03-01T20:42:00Z,28.9360,-95.2940,15.0,5.2,62.0,5.6,'11111222,11111222,11111222' 
NOS,ioos:station:wmo:fpst2:1,2019-03-01T20:48:00Z,28.9360,-95.2940,15.0,5.2,61.0,5.8,'11111222,11111222,11111222' 